Regional Weather Roundup
Issued by NWS New Orleans/Baton Rouge, LA

Home | Current Version | Previous Version | Text Only | Print | Product List | Glossary Off
Versions: 1 2 3 4 5 6 7 8 9 10 11 12 13 14 15 16 17 18 19 20 21 22 23 24 25 26 27 28 29 30 31 32 33 34 35 36 37 38 39 40 41 42 43 44 45 46 47 48 49 50

952
ASUS44 KLIX 310110
RWRLIX
NEW ORLEANS REGIONAL WEATHER ROUNDUP
NATIONAL WEATHER SERVICE NEW ORLEANS LA
800 PM CDT SAT AUG 30 2014

NOTE: "FAIR" INDICATES FEW OR NO CLOUDS BELOW 12,000 FEET WITH NO
      SIGNIFICANT WEATHER AND/OR OBSTRUCTIONS TO VISIBILITY.
      SKY/WX - SKY CONDITION AND SIGNIFICANT WEATHER.
      TMP - AIR TEMPERATURE.     DP    - DEWPOINT TEMPERATURE.
      RH  - RELATIVE HUMIDITY.   PRES  - PRESSURE.
      HI  - HEAT INDEX.          WCI   - WIND CHILL INDEX.

*  THESE STATIONS ARE NOT NWS OR FAA STATIONS AND ARE NOT UNDER
   NWS QUALITY CONTROL.

LAZ038-040-048-061>063-065>067-069-310200-
SOUTHEAST LOUISIANA

CITY           SKY/WX    TMP DP  RH WIND       PRES   REMARKS
N.O. AUDUBON     N/A     79  76  91 MISG        N/A
N.O. INTL ARPT LGT RAIN  77  74  90 CALM      30.06R
N.O. LAKEFRONT CLOUDY    81  76  84 NW16      30.05R
N.O. DOWNTOWN* MOCLDY    90  70  51 W6        30.06R HX  95
SLIDELL        CLOUDY    76  73  91 NW3       30.05R
BATON ROUGE    CLOUDY    74  72  93 SE6       30.01F
BOOTHVILLE     CLOUDY    85  80  85 S3        30.04S HX  99
BELLE CHASSE   CLOUDY    78  74  87 CALM      30.03R
BOGALUSA*      MOCLDY    77  73  86 CALM      30.07R
GALLIANO*      NOT AVBL
NEW ROADS*     MOCLDY    74  73  96 SE3       30.00F
GONZALES*      LGT RAIN  74  74 100 SE3       30.02F
HAMMOND*       LGT RAIN  75  70  83 SE3       30.06S
HOUMA*         CLOUDY    74  71  89 CALM      30.04F
PORT FOURCHON* CLEAR     86  79  79 S3        30.05R HX  99

$$

MSZ070-080>082-310200-
SOUTHERN MISSISSIPPI

CITY           SKY/WX    TMP DP  RH WIND       PRES   REMARKS
MCCOMB         CLOUDY    74  72  93 S8        30.04R
GULFPORT       CLOUDY    76  74  93 NE3       30.04S
BILOXI         CLOUDY    77  74  91 NE3       30.05R
PASCAGOULA     CLOUDY    76  74  93 CALM      30.06S
STENNIS ARPT*  PTCLDY   N/A N/A N/A CALM      30.09R

$$

COASTAL OBSERVATIONS
LAKE AND NEARSHORE STATIONS

STATION/POSITION TIME  TEMP    WIND        PRES    WAVE
                       AIR SEA DIR/SP/G            HT/PER
                 (UTC) (F)     (DEG/KT/KT) (MB)    (FT/S)
PASCAGOULA       0100   80      10/  2/  5 1017.4
WAVELAND YACHT   0100   78      50/  3/  5 1016.8
GRAND ISLE       0100   84 84  210/  4/  5 1017.5
SOUTHWEST PASS   0100   86 90  170/  7/ 10 1017.3
NEW CANAL        0100   79 80  260/ 16/ 22 1018.1
SHELL BEACH      0100   79 81   40/  4/  5 1017.0

OFFSHORE STATIONS

STATION/POSITION TIME  TEMP    WIND        PRES    WAVE
                       AIR SEA DIR/SP/G            HT/PER
                 (UTC) (F)     (DEG/KT/KT) (MB)    (FT/S)
64 S DAUPHIN ISL 0100   85     160/ 14       N/A

$$




USA.gov is the U.S. government's official web portal to all federal, state and local government web resources and services.